Location: Ertinghausen
(51.6624°N, 9.7874°E)
Time: 22:00:08
(UTC+00:00)

CZ-2C R/B - Pass Details

Date: 13 August 2024
Orbit: 703 x 904 km, 98.2° (Epoch: 07 September)

Event Time Altitude Azimuth Distance (km) Brightness Sun altitude
Rises 01:37:13 0° 14° (NNE) 3,186 7.5 -17.9°
Reaches altitude 10° 01:39:27 10° 13° (NNE) 2,282 6.5 -17.7°
Maximum altitude 01:44:29 84° 287° (WNW) 790 3.0 -17.3°
Enters shadow 01:47:22 28° 200° (SSW) 1,472 3.9 -17.0°
